GLOBALSTAR M034 [-]

Last updated on July 6, 2021, 3:36 p.m. UTC

1 25962U 99062B   21186.92083378 -.00000077  00000-0  59033-4 0  9997
2 25962  51.9848 160.2394 0014162 197.8707 188.9056 11.79400732968205
UTC
Height (km)
Latitude
Longitude
Inclination
Orbital Period
UTC large
Height (km)
Speed (km/s)
/
Latitude / Longitude
Inclination (degrees)
Orbital Period (minutes)
Azimuth
Elevation
Range (km)
Doppler Factor
iOS Compass Heading
iOS Angle